Flag for Faroe Islands Weather past 2 weeks in Tórshavn, Faroe Islands, Faroe Islands

Now
46 °F

Cool.


Feels Like: 41 °F
Forecast: 43 / 46 °F
Wind: 10 mph from North

Location: Soervaag / Vagar


UV Index: 0 (Low)

Visibility: N/A


Pressure: 30.15 "Hg

Humidity: 50%

Dew point: 28 °F

Location of TórshavnLocation

Historic Weather in Tórshavn

°F

Tórshavn temperature yesterday

Maximum temperature yesterday: 46 °F (at 9:20 AM)
Minimum temperature yesterday: 37 °F (at 12:20 AM)
Average temperature yesterday: 45 °F

Past Weeks' High & Low Weather Summary

 TemperatureHumidityPressure
High50 °F (Apr 5, 2:50 PM)100% (Apr 4, 9:50 PM)30.21 "Hg (Apr 4, 9:50 PM)
Low36 °F (Apr 13, 11:50 PM)56% (Apr 17, 3:20 PM)28.91 "Hg (Apr 12, 11:50 AM)
Average43 °F84%29.64 "Hg
* Reported Apr 4 2:20 PM — Apr 19 2:20 PM, Tórshavn, Weather by CustomWeather, © 2014

Note: Actual official high and low records may vary slightly from our data, if they occured in-between our weather recording intervals... More about our weather records

Advertising

Historic Weather Conditions — Data for Previous 24 hours

 ConditionsComfort  
Time TempWeatherWind HumidityBarometerVisibility
2:20 PM
Apr 19
45 °FPassing clouds.12 mph57%30.15 "HgN/A
1:50 PM45 °FScattered clouds.13 mph61%30.12 "HgN/A
1:20 PM46 °FPartly sunny.8 mph62%30.12 "HgN/A
12:50 PM45 °FPartly sunny.13 mph71%30.12 "HgN/A
12:20 PM45 °FBroken clouds.13 mph71%30.12 "HgN/A
11:50 AM45 °FPartly sunny.13 mph71%30.09 "HgN/A
11:20 AM45 °FPartly sunny.13 mph66%30.09 "HgN/A
10:50 AM45 °FMostly cloudy.13 mph66%30.09 "HgN/A
10:20 AM45 °FOvercast.13 mph71%30.07 "HgN/A
9:50 AM45 °FPartly sunny.10 mph76%30.07 "HgN/A
9:20 AM45 °FPartly sunny.8 mph71%30.04 "HgN/A
8:50 AM43 °FOvercast.5 mph81%30.04 "HgN/A
8:20 AM43 °FDrizzle. Overcast.12 mph81%30.04 "HgN/A
7:50 AM43 °FOvercast.9 mph81%30.01 "HgN/A
7:20 AM43 °FPassing clouds.12 mph81%30.01 "HgN/A
6:50 AM43 °FSprinkles. Passing clouds.6 mph87%29.98 "HgN/A
6:20 AM43 °FDrizzle. Overcast.10 mph87%29.98 "Hg5 mi
5:50 AM43 °FMostly cloudy.10 mph81%29.95 "HgN/A
5:20 AM43 °FOvercast.10 mph87%29.95 "HgN/A
4:50 AM43 °FDrizzle. Overcast.14 mph93%29.95 "HgN/A
4:20 AM45 °FSprinkles. Passing clouds.13 mph81%29.92 "HgN/A
3:50 AM45 °FSprinkles. Passing clouds.9 mph87%29.92 "HgN/A
3:20 AM45 °FSprinkles. Mostly cloudy.12 mph87%29.92 "HgN/A
2:50 AM45 °FPassing clouds.13 mph87%29.92 "HgN/A
2:20 AM46 °FPassing clouds.13 mph82%29.92 "HgN/A
1:50 AM46 °FPassing clouds.9 mph87%29.89 "HgN/A
1:20 AM46 °FLow clouds.10 mph87%29.89 "HgN/A
12:50 AM46 °FSprinkles. Low clouds.12 mph82%29.89 "HgN/A
12:20 AM46 °FLow clouds.12 mph93%29.86 "Hg6 mi
11:50 PM
Apr 18
45 °FSprinkles. Fog.12 mph100%29.86 "Hg2 mi
11:20 PM46 °FDrizzle. Dense fog.8 mph93%29.86 "Hg1 mi
10:50 PM46 °FFog.6 mph100%29.86 "Hg0 mi
10:20 PM46 °FFog.12 mph100%29.83 "Hg1 mi
9:50 PM46 °FSprinkles. Fog.8 mph100%29.83 "Hg1 mi
9:20 PM46 °FSprinkles. Fog.8 mph100%29.83 "Hg1 mi
8:50 PM46 °FFog.9 mph100%29.83 "Hg1 mi
8:20 PM46 °FDrizzle. Fog.12 mph100%29.83 "Hg1 mi
7:50 PM46 °FDrizzle. Fog.10 mph100%29.80 "Hg1 mi
7:20 PM46 °FFog.9 mph100%29.80 "Hg0 mi
6:50 PM46 °FFog.9 mph100%29.80 "Hg1 mi
6:20 PM46 °FFog.9 mph100%29.80 "Hg0 mi
5:50 PM46 °FDrizzle. Fog.9 mph100%29.80 "Hg1 mi
5:20 PM46 °FDrizzle. Fog.9 mph100%29.83 "Hg1 mi
4:50 PM46 °FLight rain. Fog.8 mph100%29.80 "Hg2 mi
4:20 PM46 °FLight rain. Fog.13 mph100%29.83 "Hg2 mi
3:50 PM46 °FSprinkles. Low clouds.9 mph100%29.80 "Hg3 mi
3:20 PM46 °FSprinkles. Fog.10 mph100%29.80 "Hg2 mi
Weather by CustomWeather, © 2014

See weather overview